#timestamp,LO_Frequency,Hit,StdDev 
1639062015.4,286046998.2,N
1639062035.3,286047004.1,N
1639062055.1,286047000.7,N
1639062056.0,286047000.7,N
1639062075.8,286046998.2,N
1639062095.7,286046998.7,N
1639062115.5,286046999.6,N
1639062135.3,286046999.4,N
1639062155.2,286046999.1,N
1639062175.9,286046995.1,Y
1639062195.7,286046996.8,P
1639062215.6,286046998.2,N
1639062235.4,286047000.4,N
1639062255.2,286047000.5,N
1639062275.1,286047002.0,N
1639062276.0,286047002.0,N
1639062295.8,286047004.0,N
1639062315.7,286047001.3,N
1639062335.5,286047001.9,N
1639062355.3,286047001.9,N
1639062375.2,286047005.5,N
1639062395.9,286047003.5,N
1639062415.7,286047003.2,N
1639062435.6,286047004.2,N
1639062455.4,286047004.1,N
1639062475.2,286047002.1,N
1639062495.1,286047000.9,N
1639062496.0,286047000.9,N
1639062515.8,286047002.7,N
1639062535.7,286047002.2,N
1639062555.5,286047001.1,N
1639062575.3,286046998.2,N
1639062595.2,286047002.4,N
1639062615.9,286046999.7,N
1639062635.7,286047000.8,N
1639062655.6,286046998.1,N
1639062675.4,286047000.5,N
1639062695.2,286046998.4,N
1639062715.1,286047000.9,N
1639062716.0,286047000.9,N
1639062735.8,286046998.4,N
1639062755.6,286046998.4,N
1639062775.5,286046998.7,N
1639062795.3,286046998.8,N
1639062815.2,286046998.3,N
1639062835.9,286047001.2,N
1639062855.7,286047000.8,N
1639062875.6,286046999.4,N
1639062895.4,286046999.4,N
1639062915.2,286046997.6,N
1639062935.1,286046999.2,N
1639062936.0,286046999.2,N
1639062955.8,286046996.7,N
1639062975.6,286046999.4,N
1639062995.5,286046998.6,N
1639063015.3,286046998.1,N
1639063035.1,286046997.0,N
1639063055.9,286046996.9,N
1639063075.7,286046996.9,N
1639063095.6,286046996.8,N
1639063115.4,286046997.0,N
1639063135.2,286046997.1,N
1639063155.1,286046999.3,N
1639063156.0,286046999.3,N
1639063175.8,286046998.8,N
1639063195.6,286046997.0,N
1639063215.5,286046996.9,N
1639063235.3,286047011.9,Y
1639063255.1,286046998.3,P
1639063275.9,286046998.9,P
1639063295.7,286047001.1,P
1639063315.5,286047000.6,N
1639063335.4,286046998.8,N
1639063355.2,286046999.7,N
1639063375.1,286047004.4,Y
1639063376.0,286047004.4,P
1639063395.8,286047004.9,N
1639063415.6,286047007.1,N
1639063435.5,286047008.8,Y
1639063455.3,286047003.1,P
1639063475.1,286047001.6,P
1639063495.9,286047003.5,P
1639063515.7,286047003.0,Y
1639063535.5,286047000.9,P
1639063555.4,286047002.5,N
1639063575.2,286047002.7,N
1639063595.1,286047000.2,N
1639063596.0,286047000.2,N
1639063615.8,286046999.9,N
1639063635.6,286047001.0,N
1639063655.5,286046998.6,N
1639063675.3,286047000.8,N
1639063695.1,286047000.3,N
1639063715.9,286047000.0,N
1639063735.7,286047004.4,Y
1639063755.5,286047002.8,P
1639063775.4,286047002.1,N
1639063795.2,286047002.4,N
1639063815.0,286047001.4,N
1639063816.0,286047001.4,N
1639063835.8,286047003.8,Y
1639063855.6,286047000.7,P
1639063875.5,286047000.5,N
1639063895.3,286047000.8,N
1639063915.1,286047000.3,N
1639063935.9,286047002.4,Y
1639063955.7,286047000.1,P
1639063975.5,286047000.0,N
1639063995.4,286047001.1,N
1639064015.2,286046998.1,Y
1639064035.1,286046998.5,P
1639064036.0,286046998.5,N
1639064055.8,286046998.1,N
1639064075.6,286046998.1,N
1639064095.5,286047000.5,N
1639064115.3,286047001.2,N
1639064135.1,286046998.7,N
1639064155.9,286046998.3,N
1639064175.7,286046996.9,N
1639064195.5,286046996.5,N
1639064215.4,286047001.2,N
1639064235.2,286046998.2,N
1639064255.0,286047000.0,N
1639064256.0,286047000.0,N
1639064275.8,286047000.2,N
1639064295.6,286046999.9,N
1639064315.5,286047000.8,N
1639064335.3,286047000.3,N
1639064355.1,286047002.5,N
1639064375.9,286047002.1,N
1639064395.7,286047000.2,N
1639064415.5,286047000.1,N
1639064435.4,286046999.9,N
1639064455.2,286046998.7,N
1639064475.0,286047000.5,N
1639064475.9,286047000.5,N
1639064495.8,286047002.5,N
1639064515.6,286047002.4,N
1639064535.5,286047001.1,N
1639064555.3,286047000.5,N
1639064575.1,286047002.3,N
1639064595.9,286047001.1,N
1639064615.7,286047000.0,N
1639064635.5,286046998.6,N
1639064655.4,286046998.4,N
1639064675.2,286046999.0,N
1639064695.0,286046999.3,N
1639064695.9,286046999.3,N
1639064715.8,286046998.5,N
1639064735.6,286046999.6,N
1639064755.5,286047011.9,Y
1639064775.3,286046996.6,P
1639064795.1,286046999.2,N
1639064815.9,286046997.1,N
1639064835.7,286046996.7,N
1639064855.5,286046996.7,N
1639064875.4,286046997.1,N
1639064895.2,286046999.3,N
1639064915.0,286047000.1,N
1639064915.9,286047000.1,N
1639064935.8,286046998.8,N
1639064955.6,286046998.7,N
1639064975.5,286047000.4,N
1639064995.3,286047000.7,N
1639065015.1,286046999.7,N
1639065035.9,286046999.8,N
1639065055.7,286047000.4,N
1639065075.5,286046999.9,N
1639065095.4,286047000.3,N
1639065115.2,286047002.0,N
1639065135.0,286047002.6,N
1639065135.9,286047002.6,N
1639065155.8,286047000.4,N
1639065175.6,286047001.5,N
1639065195.4,286047000.5,N
1639065215.3,286047000.7,N
1639065235.1,286047000.7,N
1639065255.9,286047001.5,N
1639065275.7,286047002.4,N
1639065295.5,286046999.1,N
1639065315.4,286046984.0,Y
1639065335.2,286046986.6,P
1639065355.0,286046984.4,N
1639065355.9,286046984.4,N
1639065375.8,286046985.0,N
1639065395.6,286046985.1,N
1639065415.4,286046986.8,N
1639065435.3,286046984.2,Y
1639065455.1,286047001.7,P
1639065475.9,286047004.9,N
1639065495.7,286047007.0,N
1639065515.5,286047011.2,N
1639065535.4,286047002.9,N
1639065555.2,286047007.6,N
1639065575.0,286047002.2,N
1639065575.9,286047002.2,N
1639065595.8,286047005.7,N
